Вернуться в каталог

FENGYUN 1C DEB

LostPO
NORAD 37688·DEBRIS·🇨🇳 China

Запущен May 10, 1999 с Taiyuan Satellite Launch Center

Loading…

Ближайшие Пролёты (ближайшие 24 часа)

TLE

УстаревшееSource: Space-Track

Эпоха: May 9, 2024, 07:34 UTC

1 37688U 99025ELD 24130.31556343  .00018625  00000-0  59985-2 0  9997
2 37688  99.0178 256.0521 0033866 355.7759   4.3136 14.38959928801921

Отслеживайте FENGYUN 1C DEB в реальном времени с AllMySat

Download on the App Store